Regional Weather Roundup
Issued by NWS Spokane, WA

Home | Current Version | Previous Version | Text Only | Print | Product List | Glossary On
Versions: 1 2 3 4 5 6 7 8 9 10 11 12 13 14 15 16 17 18 19 20 21 22 23 24 25 26 27 28 29 30 31 32 33 34 35 36 37 38 39 40 41 42 43 44 45 46 47 48 49 50
833
NZUS01 KOTX 240025
RWROTX

Eastern Washington/Northern Idaho Roundup
National Weather Service, Spokane WA
400 PM PST THU NOV 23 2017

Note: "fair" indicated few or no clouds below 12,000 feet with no
significant weather and/or obstructions to visibility.

...Northeast Washington and Northern Idaho Panhandle...

CITY           SKY/WX    TMP DP  RH WIND       PRES   REMARKS
Spokane Intl   CLOUDY    52  49  89 SW21      29.68R
Spokane Downto CLOUDY    56  50  80 W9        29.67S
Coeur d Alene  CLOUDY    54  50  86 SW18G24   29.67F
Deer Park      CLOUDY    52  47  83 S14       29.66S
Sandpoint      CLOUDY    52  46  82 S8G16     29.61S
Bonners Ferry  CLOUDY    50  45  81 S6        29.55F

...Southeast Washington and southern Idaho Panhandle...

CITY           SKY/WX    TMP DP  RH WIND       PRES   REMARKS
Walla Walla    CLOUDY    58  51  78 SW18      29.81R
Pullman/Moscow CLOUDY    56  48  74 W20G35    29.77S
Lewiston       LGT RAIN  59  52  77 W10G22    29.77S
Lowell           N/A     48  48 100 CALM      29.81F
Grangeville    CLOUDY    52  50  93 W6        29.82R

...Columbia Basin...

CITY           SKY/WX    TMP DP  RH WIND       PRES   REMARKS
Ephrata        CLEAR     56  39  53 W14G23    29.72R
Moses Lake     PTCLDY    54  44  69 W16       29.74R
Pasco          CLOUDY    62  50  64 SW15      29.77R
Richland       CLOUDY    65  47  51 SW17G24   29.79R
Hermiston      CLOUDY    60  51  72 SW7       29.81R
Pendleton      LGT RAIN  54  51  90 W18       29.83R

...East Slopes Cascades...

CITY           SKY/WX    TMP DP  RH WIND       PRES   REMARKS
The Dalles     LGT RAIN  57  50  77 W12       29.83R
Yakima         PTCLDY    60  40  47 W17G28    29.79R
Ellensburg     LGT RAIN  46  38  73 NW17G28   29.77R
Stampede Pass  LGT RAIN  36  31  82 SW12G25   29.81S
Wenatchee      PTCLDY    51  46  83 NW6       29.75R
Omak           PTCLDY    50  47  89 N3        29.69R
Chelan           N/A     52  37  58 S10         N/A
Sunnyside      PTCLDY    58  41  53 SW20G32   29.79R

...Southern British Columbia...

CITY           SKY/WX    TMP DP  RH WIND       PRES   REMARKS
Penticton      PTCLDY    50  36  57 NE10      29.66S
Castlegar      LGT RAIN  46  43  87 NE3       29.64R
Cranbrook      LGT RAIN  43  39  87 NW10G21   29.51
Osoyoos          N/A     48  45  87 SE5         N/A
Creston          N/A     46  43  87 NW17G24     N/A

...Western Montana...

CITY           SKY/WX    TMP DP  RH WIND       PRES   REMARKS
Kalispell      LGT RAIN  52  47  83 SW12      29.56F
Libby            N/A     48  48 100 SE5       29.56R
Missoula       LGT RAIN  50  48  93 E9        29.70F

...Neighboring Cities...

CITY           SKY/WX    TMP DP  RH WIND       PRES   REMARKS
Seattle        PTCLDY    52  47  83 S16       29.87R
Portland       MOCLDY    56  49  77 NW8       29.95R
Boise          MOCLDY    62  44  51 SE13      29.92F
Great Falls    CLEAR     55  39  54 W29G43    29.57F
Calgary        CLOUDY    36  32  87 S7        29.43F



USA.gov is the U.S. government's official web portal to all federal, state and local government web resources and services.